TimeEST,TemperatureF,Dew PointF,Humidity,Sea Level PressureIn,VisibilityMPH,Wind Direction,Wind SpeedMPH,Gust SpeedMPH,PrecipitationIn,Events,Conditions,WindDirDegrees,DateUTC
12:09 AM,60.8,57.2,88,29.33,2.5,SSW,9.2,18.4,0.03,Rain,Rain,200,2013-01-31 05:09:00
12:23 AM,60.8,57.2,88,29.31,4.0,SSW,9.2,-,0.05,Rain,Rain,200,2013-01-31 05:23:00
12:53 AM,60.1,57.9,93,29.30,4.0,SSW,13.8,21.9,0.14,Rain,Rain,200,2013-01-31 05:53:00
1:10 AM,60.8,57.2,88,29.25,5.0,SSW,12.7,26.5,0.04,Rain,Light Rain,210,2013-01-31 06:10:00
1:53 AM,62.1,57.9,86,29.18,9.0,South,18.4,32.2,0.09,Rain,Light Rain,180,2013-01-31 06:53:00
2:53 AM,63.0,57.9,84,29.11,5.0,South,24.2,49.5,0.05,Rain,Light Rain,190,2013-01-31 07:53:00
3:53 AM,60.1,57.9,93,29.14,0.8,WSW,18.4,39.1,0.50,Rain,Heavy Rain,250,2013-01-31 08:53:00
3:55 AM,59.0,57.2,94,29.12,0.8,SW,16.1,39.1,0.02,Rain,Heavy Rain,230,2013-01-31 08:55:00
4:03 AM,60.8,57.2,88,29.12,2.0,SW,11.5,32.2,0.05,Rain,Rain,230,2013-01-31 09:03:00
4:05 AM,60.8,57.2,88,29.12,4.0,WSW,12.7,25.3,0.05,Rain,Rain,240,2013-01-31 09:05:00
4:53 AM,59.0,54.0,83,29.12,10.0,SW,12.7,20.7,0.10,Rain,Light Rain,230,2013-01-31 09:53:00
5:53 AM,57.0,54.0,89,29.07,10.0,Variable,5.8,-,0.03,Rain,Light Rain,0,2013-01-31 10:53:00
6:07 AM,57.2,53.6,88,29.06,2.0,West,11.5,18.4,0.07,Rain,Rain,280,2013-01-31 11:07:00
6:16 AM,55.4,53.6,94,29.08,3.0,SW,8.1,-,0.08,Rain,Light Rain,220,2013-01-31 11:16:00
6:41 AM,51.8,44.6,76,29.14,10.0,WNW,19.6,36.8,0.11,,Overcast,290,2013-01-31 11:41:00
6:53 AM,51.1,37.9,61,29.18,10.0,West,18.4,36.8,0.11,Rain,Light Rain,280,2013-01-31 11:53:00
7:53 AM,46.9,28.0,48,29.23,10.0,West,16.1,39.1,0.00,,Overcast,280,2013-01-31 12:53:00
8:53 AM,44.1,25.0,47,29.33,10.0,West,21.9,40.3,N/A,,Scattered Clouds,280,2013-01-31 13:53:00
9:53 AM,43.0,21.9,43,29.39,10.0,West,12.7,34.5,N/A,,Mostly Cloudy,280,2013-01-31 14:53:00
10:53 AM,42.1,19.9,41,29.42,10.0,WNW,25.3,34.5,N/A,,Scattered Clouds,290,2013-01-31 15:53:00
11:53 AM,43.0,17.1,35,29.43,10.0,WNW,23.0,40.3,N/A,,Partly Cloudy,290,2013-01-31 16:53:00
12:53 PM,44.1,18.0,35,29.45,10.0,West,15.0,31.1,N/A,,Scattered Clouds,280,2013-01-31 17:53:00
1:53 PM,43.0,17.1,35,29.48,10.0,WNW,20.7,33.4,N/A,,Clear,290,2013-01-31 18:53:00
2:53 PM,42.1,17.1,37,29.52,10.0,WSW,16.1,29.9,N/A,,Overcast,250,2013-01-31 19:53:00
3:53 PM,41.0,12.0,31,29.57,10.0,West,18.4,31.1,N/A,,Mostly Cloudy,280,2013-01-31 20:53:00
4:53 PM,36.0,15.1,43,29.62,10.0,West,21.9,32.2,N/A,,Scattered Clouds,280,2013-01-31 21:53:00
5:53 PM,34.0,12.0,40,29.68,10.0,West,18.4,29.9,N/A,,Partly Cloudy,280,2013-01-31 22:53:00
6:53 PM,33.1,12.0,42,29.71,10.0,West,9.2,18.4,N/A,,Partly Cloudy,260,2013-01-31 23:53:00
7:53 PM,32.0,14.0,48,29.74,10.0,West,10.4,19.6,N/A,,Partly Cloudy,280,2013-02-01 00:53:00
8:53 PM,30.9,10.9,43,29.76,10.0,West,10.4,29.9,N/A,,Clear,280,2013-02-01 01:53:00
9:53 PM,30.0,8.1,40,29.78,10.0,West,12.7,34.5,N/A,,Clear,270,2013-02-01 02:53:00
10:53 PM,28.9,7.0,40,29.80,10.0,West,11.5,21.9,N/A,,Clear,280,2013-02-01 03:53:00
11:53 PM,28.9,5.0,36,29.81,10.0,West,9.2,21.9,N/A,,Partly Cloudy,270,2013-02-01 04:53:00